KJ4W Weather Reports


time (UTC)temp
C
wind
direction
speed
KPH
gust
KPH
rain 1hr
cm
rain 24hr
cm
rain mn
cm
humidity
%
barometer
mb
20260510222845 22 9 1.6 8.0 0.00 0.00 0.00 61 1016.8
20260510221346 22 43 8.0 8.0 0.00 0.00 0.00 59 1016.7
20260510215845 22 54 4.8 8.0 0.00 0.00 0.00 59 1016.5
20260510214344 22 296 1.6 8.0 0.00 0.00 0.00 61 1016.5
20260510212844 22 57 9.7 8.0 0.00 0.00 0.00 61 1016.5
20260510212249 22 190 3.2 8.0 0.00 0.00 0.00 48 1010.2
20260510212242 10 355 0.0 17.7 0.00 2.03 1.73 94 1015.8
20260510211346 23 35 14.5 8.0 0.00 0.00 0.00 60 1016.5
20260510205845 24 62 4.8 8.0 0.00 0.00 0.00 64 1016.2
20260510204344 24 355 9.7 8.0 0.00 0.00 0.00 65 1016.1
20260510202844 25 28 19.3 8.0 0.00 0.00 0.00 62 1016.4
20260510201343 26 355 4.8 8.0 0.00 0.00 0.00 61 1016.2
20260510195845 26 342 4.8 8.0 0.00 0.00 0.00 55 1016.3
20260510194347 26 229 1.6 8.0 0.00 0.00 0.00 55 1016.4
20260510192844 25 66 0.0 8.0 0.00 0.00 0.00 55 1016.3
20260510191343 25 32 0.0 8.0 0.00 0.00 0.00 54 1016.4
20260510185845 26 61 4.8 8.0 0.00 0.00 0.00 54 1016.4
20260510184343 26 304 0.0 8.0 0.00 0.00 0.00 57 1016.3
20260510182845 26 325 1.6 8.0 0.00 0.00 0.00 57 1016.2
20260510181344 25 253 1.6 8.0 0.00 0.00 0.00 58 1016.2
20260510175845 25 63 8.0 8.0 0.00 0.00 0.00 57 1016.4
20260510174344 25 86 1.6 8.0 0.00 0.00 0.00 55 1016.5
20260510172844 24 184 0.0 8.0 0.00 0.00 0.00 58 1016.6
20260510171344 23 58 6.4 8.0 0.00 0.00 0.00 62 1016.8
20260510165844 23 43 6.4 8.0 0.00 0.00 0.00 62 1016.9
20260510164343 23 309 1.6 8.0 0.00 0.00 0.00 59 1017.0
20260510162843 23 24 0.0 8.0 0.00 0.00 0.00 61 1016.9
20260510161344 23 61 9.7 8.0 0.00 0.00 0.00 59 1016.7
20260510155843 24 325 4.8 8.0 0.00 0.00 0.00 59 1016.7
20260510154344 25 44 1.6 8.0 0.00 0.00 0.00 60 1016.5
20260510152844 25 50 1.6 8.0 0.00 0.00 0.00 52 1016.3
20260510145843 24 278 4.8 8.0 0.00 0.00 0.00 54 1015.8
20260510144347 24 67 0.0 8.0 0.00 0.00 0.00 54 1015.6
20260510142844 23 174 3.2 8.0 0.00 0.00 0.00 60 1015.4
20260510141343 22 194 4.8 8.0 0.00 0.00 0.00 60 1015.6
20260510135843 22 179 6.4 8.0 0.00 0.00 0.00 61 1015.5
20260510134343 21 200 1.6 8.0 0.00 0.00 0.00 65 1015.6
20260510132846 20 272 0.0 8.0 0.00 0.00 0.00 70 1015.6
20260510131343 19 191 0.0 8.0 0.00 0.00 0.00 73 1015.8
20260510125844 18 189 3.2 8.0 0.00 0.00 0.00 73 1015.5
20260510124343 17 173 1.6 8.0 0.00 0.00 0.00 77 1015.3
20260510122844 16 167 4.8 8.0 0.00 0.00 0.00 79 1015.3
20260510121343 15 161 0.0 8.0 0.00 0.00 0.00 79 1015.3
20260510115843 15 181 1.6 8.0 0.00 0.00 0.00 78 1014.8
20260510114416 14 275 0.0 8.0 0.00 0.00 0.00 80 1014.6
20260510114343 14 275 0.0 8.0 0.00 0.00 0.00 80 1014.6
20260510112844 13 9 0.0 8.0 0.00 0.00 0.00 81 1014.2
20260510111344 13 9 0.0 8.0 0.00 0.00 0.00 81 1014.2
20260510105844 13 180 0.0 8.0 0.00 0.00 0.00 82 1014.2
20260510104351 13 180 0.0 8.0 0.00 0.00 0.00 80 1014.2
20260510101344 14 349 1.6 8.0 0.00 0.00 0.00 76 1014.3
20260510094348 15 342 4.8 8.0 0.00 0.00 0.00 76 1014.1
20260510092846 15 187 0.0 8.0 0.00 0.00 0.00 73 1013.3
20260510091347 15 187 1.6 8.0 0.00 0.00 0.00 73 1013.1
20260510084343 16 178 0.0 8.0 0.00 0.00 0.00 67 1012.7
20260510082844 16 170 0.0 8.0 0.00 0.00 0.00 66 1012.7
20260510081344 17 198 1.6 8.0 0.00 0.00 0.00 65 1012.4
20260510075844 16 179 3.2 8.0 0.00 0.00 0.00 65 1012.4
20260510074342 16 190 3.2 8.0 0.00 0.00 0.00 67 1012.4
20260510072842 16 190 1.6 8.0 0.00 0.00 0.00 66 1012.4
20260510065844 16 190 1.6 8.0 0.00 0.00 0.00 67 1012.4
20260510064341 17 190 1.6 8.0 0.00 0.00 0.00 65 1012.3
20260510062843 16 178 3.2 8.0 0.00 0.00 0.00 66 1012.2
20260510061342 16 186 3.2 8.0 0.00 0.00 0.00 69 1012.3
20260510055906 17 191 0.0 8.0 0.00 0.00 0.00 67 1012.4
20260510054406 17 181 4.8 8.0 0.00 0.00 0.00 67 1012.3
20260510052905 17 191 0.0 8.0 0.00 0.00 0.00 63 1012.3
20260510051405 17 183 1.6 8.0 0.00 0.00 0.00 63 1012.2
20260510045906 18 183 0.0 8.0 0.00 0.00 0.00 61 1012.1
20260510044406 18 173 1.6 8.0 0.00 0.00 0.00 59 1012.0
20260510042905 18 189 4.8 8.0 0.00 0.00 0.00 59 1012.0
20260510035906 18 186 3.2 8.0 0.00 0.00 0.00 60 1012.0
20260510034406 18 182 3.2 8.0 0.00 0.00 0.00 62 1012.1
20260510032905 17 182 3.2 8.0 0.00 0.00 0.00 67 1012.1
20260510031405 16 189 4.8 8.0 0.00 0.00 0.00 71 1012.1
20260510025904 17 186 0.0 8.0 0.00 0.00 0.00 71 1011.9
20260510024405 17 186 0.0 8.0 0.00 0.00 0.00 69 1011.8
20260510022904 17 186 0.0 8.0 0.00 0.00 0.00 68 1011.6
20260510021407 18 186 0.0 8.0 0.00 0.00 0.00 65 1011.6
20260510015905 18 186 0.0 8.0 0.00 0.00 0.00 62 1011.2
20260510014405 19 186 0.0 8.0 0.00 0.00 0.00 60 1011.2
20260510012904 20 186 0.0 8.0 0.00 0.00 0.00 57 1010.9
20260510011406 21 186 1.6 8.0 0.00 0.00 0.00 54 1010.8
20260510005905 22 188 0.0 8.0 0.00 0.00 0.00 51 1010.7
20260510004405 22 180 1.6 8.0 0.00 0.00 0.00 50 1010.5
20260510002904 22 190 3.2 8.0 0.00 0.00 0.00 48 1010.2
20260510001406 23 171 1.6 8.0 0.00 0.00 0.00 47 1010.1
20260509235905 23 205 0.0 8.0 0.00 0.00 0.00 45 1009.9
20260509234405 25 202 1.6 8.0 0.00 0.00 0.00 42 1009.7
20260509232904 26 207 3.2 8.0 0.00 0.00 0.00 39 1009.9
20260509231404 26 202 0.0 8.0 0.00 0.00 0.00 38 1009.9
20260509225905 27 248 0.0 8.0 0.00 0.00 0.00 37 1009.9
20260509224406 27 185 0.0 8.0 0.00 0.00 0.00 40 1010.0